Time,TemperatureF,DewpointF,PressureIn,WindDirection,WindDirectionDegrees,WindSpeedMPH,WindSpeedGustMPH,Humidity,HourlyPrecipIn,Conditions,Clouds,dailyrainin,SolarRadiationWatts/m^2,SoftwareType,DateUTC
2013-03-26 00:04:00,31.2,26.4,30.33,NW,312,0.0,4.0,82,0.00,,OVC036,0.00,0.00,VWS V14.01,2013-03-26 05:04:00,
2013-03-26 00:09:00,31.2,26.4,30.33,WNW,302,1.0,3.0,82,0.00,,OVC036,0.00,0.00,VWS V14.01,2013-03-26 05:09:00,
2013-03-26 00:14:00,31.2,26.4,30.33,NNW,327,1.0,4.0,82,0.00,,OVC036,0.00,0.00,VWS V14.01,2013-03-26 05:14:00,
2013-03-26 00:19:00,31.2,26.4,30.33,WNW,286,3.0,6.0,82,0.00,,OVC036,0.00,0.00,VWS V14.01,2013-03-26 05:19:00,
2013-03-26 00:24:00,31.3,26.2,30.34,WNW,303,1.0,3.0,81,0.00,,OVC036,0.00,0.00,VWS V14.01,2013-03-26 05:24:00,
2013-03-26 00:29:00,31.3,26.2,30.34,WNW,288,1.0,4.0,81,0.00,,OVC036,0.00,0.00,VWS V14.01,2013-03-26 05:29:00,
2013-03-26 00:35:00,31.3,26.2,30.34,NW,320,0.0,3.0,81,0.00,,OVC036,0.00,0.00,VWS V14.01,2013-03-26 05:35:00,
2013-03-26 00:41:00,31.3,26.2,30.34,NW,320,2.0,5.0,81,0.00,,OVC036,0.00,0.00,VWS V14.01,2013-03-26 05:41:00,
2013-03-26 00:47:00,31.3,25.9,30.34,WNW,294,2.0,5.0,80,0.00,,OVC036,0.00,0.00,VWS V14.01,2013-03-26 05:47:00,
2013-03-26 00:52:00,31.3,25.9,30.34,NNW,337,0.0,4.0,80,0.00,,OVC036,0.00,0.00,VWS V14.01,2013-03-26 05:52:00,
2013-03-26 00:57:00,31.3,25.9,30.34,NNW,327,0.0,3.0,80,0.00,,OVC036,0.00,0.00,VWS V14.01,2013-03-26 05:57:00,
2013-03-26 01:02:00,31.3,25.9,30.34,NNW,327,1.0,4.0,80,0.00,,OVC040,0.00,0.00,VWS V14.01,2013-03-26 06:02:00,
2013-03-26 01:08:00,31.3,25.6,30.34,NW,323,1.0,4.0,79,0.00,,OVC040,0.00,0.00,VWS V14.01,2013-03-26 06:08:00,
2013-03-26 01:14:00,31.3,25.6,30.34,WNW,283,6.0,8.0,79,0.00,,OVC040,0.00,0.00,VWS V14.01,2013-03-26 06:14:00,
2013-03-26 01:20:00,31.3,25.6,30.34,NW,323,1.0,5.0,79,0.00,,OVC040,0.00,0.00,VWS V14.01,2013-03-26 06:20:00,
2013-03-26 01:26:00,31.3,25.2,30.34,West,277,3.0,4.0,78,0.00,,OVC040,0.00,0.00,VWS V14.01,2013-03-26 06:26:00,
2013-03-26 01:31:00,31.3,25.6,30.34,WNW,286,2.0,4.0,79,0.00,,OVC040,0.00,0.00,VWS V14.01,2013-03-26 06:31:00,
2013-03-26 01:36:00,31.3,25.6,30.34,NW,312,5.0,7.0,79,0.00,,OVC040,0.00,0.00,VWS V14.01,2013-03-26 06:36:00,
2013-03-26 01:42:00,31.3,25.6,30.34,WNW,298,1.0,1.0,79,0.00,,OVC040,0.00,0.00,VWS V14.01,2013-03-26 06:42:00,
2013-03-26 01:48:00,31.2,25.5,30.34,WNW,298,0.0,3.0,79,0.00,,OVC040,0.00,0.00,VWS V14.01,2013-03-26 06:48:00,
2013-03-26 01:54:00,31.2,25.5,30.34,WNW,292,5.0,5.0,79,0.00,,OVC040,0.00,0.00,VWS V14.01,2013-03-26 06:54:00,
2013-03-26 02:00:00,31.2,25.5,30.34,WNW,294,0.0,2.0,79,0.00,,OVC042,0.00,0.00,VWS V14.01,2013-03-26 07:00:00,
2013-03-26 02:05:00,31.2,25.5,30.34,WNW,287,0.0,4.0,79,0.00,,OVC042,0.00,0.00,VWS V14.01,2013-03-26 07:05:00,
2013-03-26 02:11:00,31.2,25.5,30.34,NW,314,6.0,8.0,79,0.00,,OVC042,0.00,0.00,VWS V14.01,2013-03-26 07:11:00,
2013-03-26 02:16:00,31.3,25.2,30.34,NW,311,1.0,3.0,78,0.00,,OVC042,0.00,0.00,VWS V14.01,2013-03-26 07:16:00,
2013-03-26 02:22:00,31.3,25.6,30.34,NNE,15,3.0,8.0,79,0.00,,OVC042,0.00,0.00,VWS V14.01,2013-03-26 07:22:00,
2013-03-26 02:28:00,31.3,25.2,30.34,West,279,1.0,4.0,78,0.00,,OVC042,0.00,0.00,VWS V14.01,2013-03-26 07:28:00,
2013-03-26 02:34:00,31.3,25.6,30.34,NW,323,6.0,7.0,79,0.00,,OVC042,0.00,0.00,VWS V14.01,2013-03-26 07:34:00,
2013-03-26 02:39:00,31.3,25.6,30.34,NNW,341,4.0,5.0,79,0.00,,OVC042,0.00,0.00,VWS V14.01,2013-03-26 07:39:00,
2013-03-26 02:44:00,31.3,25.6,30.34,NW,304,4.0,6.0,79,0.00,,OVC042,0.00,0.00,VWS V14.01,2013-03-26 07:44:00,
2013-03-26 02:49:00,31.3,25.6,30.34,NW,319,4.0,4.0,79,0.00,,OVC042,0.00,0.00,VWS V14.01,2013-03-26 07:49:00,
2013-03-26 02:54:00,31.2,25.5,30.34,NW,318,0.0,1.0,79,0.00,,OVC042,0.00,0.00,VWS V14.01,2013-03-26 07:54:00,
2013-03-26 02:59:00,31.2,25.5,30.34,NW,317,3.0,4.0,79,0.00,,OVC042,0.00,0.00,VWS V14.01,2013-03-26 07:59:00,
2013-03-26 03:04:00,31.2,25.5,30.34,NW,317,0.0,5.0,79,0.00,,OVC044,0.00,0.00,VWS V14.01,2013-03-26 08:04:00,
2013-03-26 03:09:00,31.2,25.5,30.34,NW,317,2.0,2.0,79,0.00,,OVC044,0.00,0.00,VWS V14.01,2013-03-26 08:09:00,
2013-03-26 03:15:00,31.0,25.3,30.34,WNW,288,4.0,5.0,79,0.00,,OVC044,0.00,0.00,VWS V14.01,2013-03-26 08:15:00,
2013-03-26 03:21:00,31.0,25.3,30.34,WNW,288,2.0,4.0,79,0.00,,OVC044,0.00,0.00,VWS V14.01,2013-03-26 08:21:00,
2013-03-26 03:26:00,31.0,25.3,30.34,NW,315,4.0,6.0,79,0.00,,OVC044,0.00,0.00,VWS V14.01,2013-03-26 08:26:00,
2013-03-26 03:32:00,31.0,25.3,30.34,NW,309,2.0,3.0,79,0.00,,OVC044,0.00,0.00,VWS V14.01,2013-03-26 08:32:00,
2013-03-26 03:37:00,31.0,25.3,30.34,NW,311,5.0,5.0,79,0.00,,OVC044,0.00,0.00,VWS V14.01,2013-03-26 08:37:00,
2013-03-26 03:43:00,31.0,25.3,30.34,NW,314,0.0,4.0,79,0.00,,OVC044,0.00,0.00,VWS V14.01,2013-03-26 08:43:00,
2013-03-26 03:48:00,31.0,25.3,30.34,WNW,299,3.0,6.0,79,0.00,,OVC044,0.00,0.00,VWS V14.01,2013-03-26 08:48:00,
2013-03-26 03:54:00,30.9,25.2,30.34,WNW,301,3.0,4.0,79,0.00,,OVC044,0.00,0.00,VWS V14.01,2013-03-26 08:54:00,
2013-03-26 04:00:00,30.9,25.5,30.34,WNW,300,3.0,3.0,80,0.00,,OVC044,0.00,0.00,VWS V14.01,2013-03-26 09:00:00,
2013-03-26 04:05:00,30.9,25.5,30.34,NW,311,4.0,5.0,80,0.00,,OVC044,0.00,0.00,VWS V14.01,2013-03-26 09:05:00,
2013-03-26 04:12:00,30.9,25.5,30.34,WNW,296,6.0,6.0,80,0.00,,OVC044,0.00,0.00,VWS V14.01,2013-03-26 09:12:00,
2013-03-26 04:17:00,30.7,25.3,30.34,WNW,291,2.0,7.0,80,0.00,,OVC044,0.00,0.00,VWS V14.01,2013-03-26 09:17:00,
2013-03-26 04:22:00,30.7,25.3,30.34,West,281,2.0,6.0,80,0.00,,OVC044,0.00,0.00,VWS V14.01,2013-03-26 09:22:00,
2013-03-26 04:27:00,30.7,25.3,30.34,NW,304,4.0,9.0,80,0.00,,OVC044,0.00,0.00,VWS V14.01,2013-03-26 09:27:00,
2013-03-26 04:32:00,30.6,25.2,30.35,WNW,302,4.0,4.0,80,0.00,,OVC044,0.00,0.00,VWS V14.01,2013-03-26 09:32:00,
2013-03-26 04:37:00,30.6,25.5,30.35,WNW,284,2.0,5.0,81,0.00,,OVC044,0.00,0.00,VWS V14.01,2013-03-26 09:37:00,
2013-03-26 04:43:00,30.4,25.3,30.35,NW,305,5.0,5.0,81,0.00,,OVC044,0.00,0.00,VWS V14.01,2013-03-26 09:43:00,
2013-03-26 04:49:00,30.4,25.3,30.35,NW,311,4.0,5.0,81,0.00,,OVC044,0.00,0.00,VWS V14.01,2013-03-26 09:49:00,
2013-03-26 04:54:00,30.4,25.3,30.35,West,274,6.0,9.0,81,0.00,,OVC044,0.00,0.00,VWS V14.01,2013-03-26 09:54:00,
2013-03-26 04:59:00,30.4,25.3,30.35,West,281,1.0,2.0,81,0.00,,OVC044,0.00,0.00,VWS V14.01,2013-03-26 09:59:00,
2013-03-26 05:04:00,30.4,25.6,30.35,West,271,3.0,7.0,82,0.00,,OVC046,0.00,0.00,VWS V14.01,2013-03-26 10:04:00,
2013-03-26 05:10:00,30.4,25.6,30.35,West,279,5.0,6.0,82,0.00,,OVC046,0.00,0.00,VWS V14.01,2013-03-26 10:10:00,
2013-03-26 05:15:00,30.4,25.3,30.36,WNW,282,2.0,6.0,81,0.00,,OVC046,0.00,0.00,VWS V14.01,2013-03-26 10:15:00,
2013-03-26 05:20:00,30.4,25.3,30.36,West,274,3.0,9.0,81,0.00,,OVC046,0.00,0.00,VWS V14.01,2013-03-26 10:20:00,
2013-03-26 05:26:00,30.4,25.3,30.36,NW,310,2.0,7.0,81,0.00,,OVC046,0.00,0.00,VWS V14.01,2013-03-26 10:26:00,
2013-03-26 05:31:00,30.3,25.2,30.36,WNW,296,1.0,6.0,81,0.00,,OVC046,0.00,0.00,VWS V14.01,2013-03-26 10:31:00,
2013-03-26 05:37:00,30.3,25.2,30.36,WNW,290,4.0,5.0,81,0.00,,OVC046,0.00,0.00,VWS V14.01,2013-03-26 10:37:00,
2013-03-26 05:42:00,30.4,25.3,30.36,West,264,2.0,5.0,81,0.00,,OVC046,0.00,0.00,VWS V14.01,2013-03-26 10:42:00,
2013-03-26 05:48:00,30.4,25.3,30.36,WNW,301,6.0,6.0,81,0.00,,OVC046,0.00,0.00,VWS V14.01,2013-03-26 10:48:00,
2013-03-26 05:54:00,30.3,25.2,30.36,WNW,282,2.0,7.0,81,0.00,,OVC046,0.00,0.00,VWS V14.01,2013-03-26 10:54:00,
2013-03-26 06:00:00,30.3,25.2,30.37,NW,306,7.0,7.0,81,0.00,,OVC046,0.00,0.00,VWS V14.01,2013-03-26 11:00:00,
2013-03-26 06:05:00,30.3,25.2,30.37,WNW,302,4.0,8.0,81,0.00,,OVC050,0.00,0.00,VWS V14.01,2013-03-26 11:05:00,
2013-03-26 06:10:00,30.3,25.2,30.37,WNW,300,6.0,6.0,81,0.00,,OVC050,0.00,0.00,VWS V14.01,2013-03-26 11:10:00,
2013-03-26 06:16:00,30.3,25.2,30.38,WNW,296,4.0,5.0,81,0.00,,OVC050,0.00,0.00,VWS V14.01,2013-03-26 11:16:00,
2013-03-26 06:23:00,30.3,25.2,30.38,WNW,293,3.0,5.0,81,0.00,,OVC050,0.00,0.00,VWS V14.01,2013-03-26 11:23:00,
2013-03-26 06:28:00,30.3,25.2,30.38,WNW,288,3.0,5.0,81,0.00,,OVC050,0.00,0.00,VWS V14.01,2013-03-26 11:28:00,
2013-03-26 06:33:00,30.3,25.2,30.38,West,281,1.0,8.0,81,0.00,,OVC050,0.00,0.00,VWS V14.01,2013-03-26 11:33:00,
2013-03-26 06:39:00,30.3,24.9,30.38,West,281,3.0,6.0,80,0.00,,OVC050,0.00,0.00,VWS V14.01,2013-03-26 11:39:00,
2013-03-26 06:45:00,30.3,24.9,30.39,WNW,284,2.0,4.0,80,0.00,,OVC050,0.00,0.00,VWS V14.01,2013-03-26 11:45:00,
2013-03-26 06:51:00,30.3,24.9,30.39,WNW,298,4.0,5.0,80,0.00,,OVC050,0.00,0.00,VWS V14.01,2013-03-26 11:51:00,
2013-03-26 06:56:00,30.3,24.9,30.39,NW,313,1.0,5.0,80,0.00,,OVC050,0.00,5.00,VWS V14.01,2013-03-26 11:56:00,
2013-03-26 07:02:00,30.3,24.9,30.39,NW,313,0.0,5.0,80,0.00,,OVC050,0.00,11.00,VWS V14.01,2013-03-26 12:02:00,
2013-03-26 07:07:00,30.3,24.9,30.39,West,280,2.0,2.0,80,0.00,,OVC050,0.00,14.00,VWS V14.01,2013-03-26 12:07:00,
2013-03-26 07:12:00,30.3,24.9,30.40,WNW,293,3.0,5.0,80,0.00,,OVC050,0.00,19.00,VWS V14.01,2013-03-26 12:12:00,
2013-03-26 07:17:00,30.3,24.6,30.40,WNW,292,0.0,6.0,79,0.00,,OVC050,0.00,23.00,VWS V14.01,2013-03-26 12:17:00,
2013-03-26 07:22:00,30.3,24.6,30.40,WNW,292,0.0,5.0,79,0.00,,OVC050,0.00,28.00,VWS V14.01,2013-03-26 12:22:00,
2013-03-26 07:27:00,30.3,24.9,30.40,WNW,292,0.0,3.0,80,0.00,,OVC050,0.00,35.00,VWS V14.01,2013-03-26 12:27:00,
2013-03-26 07:33:00,30.3,24.9,30.41,WNW,292,3.0,4.0,80,0.00,,OVC050,0.00,42.00,VWS V14.01,2013-03-26 12:33:00,
2013-03-26 07:38:00,30.3,24.9,30.41,WNW,292,4.0,5.0,80,0.00,,OVC050,0.00,53.00,VWS V14.01,2013-03-26 12:38:00,
2013-03-26 07:43:00,30.3,24.6,30.41,North,349,3.0,3.0,79,0.00,,OVC050,0.00,65.00,VWS V14.01,2013-03-26 12:43:00,
2013-03-26 07:49:00,30.4,25.0,30.41,WNW,292,3.0,5.0,80,0.00,,OVC050,0.00,81.00,VWS V14.01,2013-03-26 12:49:00,
2013-03-26 07:54:00,30.4,24.7,30.42,WNW,288,2.0,6.0,79,0.00,,OVC050,0.00,93.00,VWS V14.01,2013-03-26 12:54:00,
2013-03-26 07:59:00,30.6,24.9,30.42,WNW,296,4.0,6.0,79,0.00,,OVC050,0.00,102.00,VWS V14.01,2013-03-26 12:59:00,
2013-03-26 08:04:00,30.6,24.9,30.42,WNW,303,5.0,5.0,79,0.00,,OVC050,0.00,118.00,VWS V14.01,2013-03-26 13:04:00,
2013-03-26 08:09:00,30.7,25.0,30.42,WNW,291,1.0,4.0,79,0.00,,OVC050,0.00,149.00,VWS V14.01,2013-03-26 13:09:00,
2013-03-26 08:15:00,30.9,25.2,30.42,West,281,2.0,4.0,79,0.00,,OVC050,0.00,151.00,VWS V14.01,2013-03-26 13:15:00,
2013-03-26 08:20:00,31.0,25.0,30.42,NW,306,2.0,5.0,78,0.00,,OVC050,0.00,179.00,VWS V14.01,2013-03-26 13:20:00,
2013-03-26 08:25:00,31.2,25.1,30.42,WNW,290,1.0,6.0,78,0.00,,OVC050,0.00,181.00,VWS V14.01,2013-03-26 13:25:00,
2013-03-26 08:30:00,31.3,25.6,30.42,West,277,4.0,7.0,79,0.00,,OVC050,0.00,183.00,VWS V14.01,2013-03-26 13:30:00,
2013-03-26 08:35:00,31.3,25.2,30.42,West,280,3.0,9.0,78,0.00,,OVC050,0.00,167.00,VWS V14.01,2013-03-26 13:35:00,
2013-03-26 08:40:00,31.3,25.2,30.42,NW,320,4.0,5.0,78,0.00,,OVC050,0.00,199.00,VWS V14.01,2013-03-26 13:40:00,
2013-03-26 08:45:00,31.5,25.4,30.42,WNW,287,7.0,7.0,78,0.00,,OVC050,0.00,220.00,VWS V14.01,2013-03-26 13:45:00,
2013-03-26 08:50:00,31.6,25.2,30.43,WNW,288,3.0,8.0,77,0.00,,OVC050,0.00,232.00,VWS V14.01,2013-03-26 13:50:00,
2013-03-26 08:55:00,31.8,25.4,30.43,WNW,296,6.0,7.0,77,0.00,,OVC050,0.00,267.00,VWS V14.01,2013-03-26 13:55:00,
2013-03-26 09:01:00,31.9,25.5,30.43,WNW,301,4.0,6.0,77,0.00,,BKN060,0.00,244.00,VWS V14.01,2013-03-26 14:01:00,
2013-03-26 09:06:00,32.2,25.5,30.43,NW,317,0.0,5.0,76,0.00,,BKN060,0.00,251.00,VWS V14.01,2013-03-26 14:06:00,
2013-03-26 09:12:00,32.5,25.5,30.43,NW,311,4.0,5.0,75,0.00,,BKN060,0.00,272.00,VWS V14.01,2013-03-26 14:12:00,
2013-03-26 09:18:00,32.7,25.3,30.43,WNW,298,5.0,8.0,74,0.00,,BKN060,0.00,279.00,VWS V14.01,2013-03-26 14:18:00,
2013-03-26 09:23:00,32.8,25.4,30.43,WNW,300,3.0,7.0,74,0.00,,BKN060,0.00,288.00,VWS V14.01,2013-03-26 14:23:00,
2013-03-26 09:28:00,32.9,25.2,30.43,NW,325,4.0,10.0,73,0.00,,BKN060,0.00,362.00,VWS V14.01,2013-03-26 14:28:00,
2013-03-26 09:33:00,33.2,25.5,30.43,WNW,283,6.0,8.0,73,0.00,,BKN060,0.00,376.00,VWS V14.01,2013-03-26 14:33:00,
2013-03-26 09:38:00,33.5,25.5,30.43,NW,326,2.0,5.0,72,0.00,,BKN060,0.00,381.00,VWS V14.01,2013-03-26 14:38:00,
2013-03-26 09:43:00,33.7,25.3,30.44,NW,317,0.0,5.0,71,0.00,,BKN060,0.00,378.00,VWS V14.01,2013-03-26 14:43:00,
2013-03-26 09:48:00,33.7,25.3,30.43,NW,305,3.0,9.0,71,0.00,,BKN060,0.00,411.00,VWS V14.01,2013-03-26 14:48:00,
2013-03-26 09:53:00,33.7,25.3,30.44,WSW,241,4.0,6.0,71,0.00,,BKN060,0.00,448.00,VWS V14.01,2013-03-26 14:53:00,
2013-03-26 09:58:00,33.8,25.1,30.44,WNW,296,1.0,6.0,70,0.00,,BKN060,0.00,383.00,VWS V14.01,2013-03-26 14:58:00,
2013-03-26 10:03:00,34.0,25.6,30.44,NW,306,6.0,10.0,71,0.00,,OVC055,0.00,424.00,VWS V14.01,2013-03-26 15:03:00,
2013-03-26 10:08:00,34.1,25.4,30.44,WNW,285,4.0,7.0,70,0.00,,OVC055,0.00,316.00,VWS V14.01,2013-03-26 15:08:00,
2013-03-26 10:13:00,34.3,25.2,30.44,WNW,290,5.0,8.0,69,0.00,,OVC055,0.00,621.00,VWS V14.01,2013-03-26 15:13:00,
2013-03-26 10:18:00,34.4,25.0,30.44,NW,314,6.0,6.0,68,0.00,,OVC055,0.00,638.00,VWS V14.01,2013-03-26 15:18:00,
2013-03-26 10:23:00,34.6,25.5,30.44,WNW,300,7.0,8.0,69,0.00,,OVC055,0.00,661.00,VWS V14.01,2013-03-26 15:23:00,
2013-03-26 10:28:00,34.6,25.1,30.45,WNW,292,3.0,7.0,68,0.00,,OVC055,0.00,691.00,VWS V14.01,2013-03-26 15:28:00,
2013-03-26 10:33:00,34.4,25.0,30.44,NW,322,5.0,10.0,68,0.00,,OVC055,0.00,448.00,VWS V14.01,2013-03-26 15:33:00,
2013-03-26 10:38:00,34.6,25.1,30.44,West,262,4.0,7.0,68,0.00,,OVC055,0.00,779.00,VWS V14.01,2013-03-26 15:38:00,
2013-03-26 10:43:00,35.0,25.5,30.45,NNW,342,3.0,5.0,68,0.00,,OVC055,0.00,740.00,VWS V14.01,2013-03-26 15:43:00,
2013-03-26 10:48:00,35.2,25.4,30.45,WNW,284,5.0,5.0,67,0.00,,OVC055,0.00,726.00,VWS V14.01,2013-03-26 15:48:00,
2013-03-26 10:53:00,35.2,25.4,30.45,WNW,286,2.0,7.0,67,0.00,,OVC055,0.00,735.00,VWS V14.01,2013-03-26 15:53:00,
2013-03-26 10:58:00,35.3,25.5,30.45,WNW,295,2.0,6.0,67,0.00,,OVC055,0.00,747.00,VWS V14.01,2013-03-26 15:58:00,
2013-03-26 11:03:00,35.5,25.3,30.45,WNW,293,3.0,7.0,66,0.00,,OVC055,0.00,758.00,VWS V14.01,2013-03-26 16:03:00,
2013-03-26 11:08:00,35.6,25.4,30.45,WNW,299,8.0,8.0,66,0.00,,OVC055,0.00,768.00,VWS V14.01,2013-03-26 16:08:00,
2013-03-26 11:13:00,35.3,24.7,30.45,WNW,290,7.0,7.0,65,0.00,,OVC055,0.00,780.00,VWS V14.01,2013-03-26 16:13:00,
2013-03-26 11:18:00,35.2,24.6,30.45,West,262,1.0,7.0,65,0.00,,OVC055,0.00,809.00,VWS V14.01,2013-03-26 16:18:00,
2013-03-26 11:23:00,35.5,26.0,30.45,West,271,7.0,12.0,68,0.00,,OVC055,0.00,708.00,VWS V14.01,2013-03-26 16:23:00,
2013-03-26 11:29:00,35.2,26.1,30.45,West,275,2.0,8.0,69,0.00,,OVC055,0.00,777.00,VWS V14.01,2013-03-26 16:29:00,
2013-03-26 11:35:00,35.0,26.2,30.45,WNW,294,4.0,6.0,70,0.00,,OVC055,0.00,759.00,VWS V14.01,2013-03-26 16:35:00,
2013-03-26 11:40:00,35.5,26.4,30.45,WSW,240,8.0,9.0,69,0.00,,OVC055,0.00,930.00,VWS V14.01,2013-03-26 16:40:00,
2013-03-26 11:45:00,35.5,26.4,30.45,West,269,0.0,3.0,69,0.00,,OVC055,0.00,744.00,VWS V14.01,2013-03-26 16:45:00,
2013-03-26 11:50:00,35.6,26.1,30.45,WSW,238,6.0,8.0,68,0.00,,OVC055,0.00,715.00,VWS V14.01,2013-03-26 16:50:00,
2013-03-26 11:55:00,35.6,25.7,30.45,WSW,244,6.0,7.0,67,0.00,,OVC055,0.00,737.00,VWS V14.01,2013-03-26 16:55:00,
2013-03-26 12:00:00,35.9,25.7,30.45,WSW,256,3.0,7.0,66,0.00,,FEW050,0.00,606.00,VWS V14.01,2013-03-26 17:00:00,
2013-03-26 12:05:00,35.6,25.0,30.45,West,277,7.0,8.0,65,0.00,,FEW050,0.00,548.00,VWS V14.01,2013-03-26 17:05:00,
2013-03-26 12:10:00,35.8,25.2,30.45,WNW,293,6.0,7.0,65,0.00,,FEW050,0.00,914.00,VWS V14.01,2013-03-26 17:10:00,
2013-03-26 12:15:00,35.9,24.9,30.45,West,273,6.0,11.0,64,0.00,,FEW050,0.00,960.00,VWS V14.01,2013-03-26 17:15:00,
2013-03-26 12:20:00,36.0,24.6,30.45,WSW,251,6.0,10.0,63,0.00,,FEW050,0.00,1109.00,VWS V14.01,2013-03-26 17:20:00,
2013-03-26 12:25:00,36.5,25.1,30.45,West,265,6.0,9.0,63,0.00,,FEW050,0.00,1107.00,VWS V14.01,2013-03-26 17:25:00,
2013-03-26 12:30:00,36.8,25.0,30.45,WSW,258,4.0,7.0,62,0.00,,FEW050,0.00,1243.00,VWS V14.01,2013-03-26 17:30:00,
2013-03-26 12:35:00,36.9,24.7,30.45,WNW,291,2.0,7.0,61,0.00,,FEW050,0.00,394.00,VWS V14.01,2013-03-26 17:35:00,
2013-03-26 12:40:00,36.8,23.8,30.45,WSW,248,9.0,9.0,59,0.00,,FEW050,0.00,531.00,VWS V14.01,2013-03-26 17:40:00,
2013-03-26 12:45:00,36.8,23.8,30.45,West,269,2.0,8.0,59,0.00,,FEW050,0.00,424.00,VWS V14.01,2013-03-26 17:45:00,
2013-03-26 12:50:00,36.5,23.5,30.45,WNW,288,4.0,7.0,59,0.00,,FEW050,0.00,443.00,VWS V14.01,2013-03-26 17:50:00,
2013-03-26 12:55:00,36.9,23.5,30.45,West,279,8.0,13.0,58,0.00,,FEW050,0.00,1361.00,VWS V14.01,2013-03-26 17:55:00,
2013-03-26 13:00:00,37.2,21.7,30.45,WNW,286,4.0,12.0,53,0.00,,BKN049,0.00,517.00,VWS V14.01,2013-03-26 18:00:00,
2013-03-26 13:05:00,36.8,21.3,30.45,WSW,253,5.0,17.0,53,0.00,,BKN049,0.00,422.00,VWS V14.01,2013-03-26 18:05:00,
2013-03-26 13:10:00,36.8,22.2,30.45,NW,315,13.0,13.0,55,0.00,,BKN049,0.00,343.00,VWS V14.01,2013-03-26 18:10:00,
2013-03-26 13:15:00,36.5,21.9,30.45,West,266,3.0,8.0,55,0.00,,BKN049,0.00,320.00,VWS V14.01,2013-03-26 18:15:00,
2013-03-26 13:20:00,36.5,22.3,30.45,NW,321,6.0,10.0,56,0.00,,BKN049,0.00,272.00,VWS V14.01,2013-03-26 18:20:00,
2013-03-26 13:25:00,36.6,22.4,30.45,West,270,7.0,10.0,56,0.00,,BKN049,0.00,981.00,VWS V14.01,2013-03-26 18:25:00,
2013-03-26 13:31:00,36.5,21.5,30.45,WSW,248,4.0,5.0,54,0.00,,BKN049,0.00,294.00,VWS V14.01,2013-03-26 18:31:00,
2013-03-26 13:36:00,36.2,23.3,30.45,SSW,199,1.0,7.0,59,0.00,,BKN049,0.00,1002.00,VWS V14.01,2013-03-26 18:36:00,
2013-03-26 13:42:00,36.5,23.1,30.45,NW,313,7.0,8.0,58,0.00,,BKN049,0.00,981.00,VWS V14.01,2013-03-26 18:42:00,
2013-03-26 13:47:00,37.0,21.9,30.45,WNW,300,5.0,9.0,54,0.00,,BKN049,0.00,1063.00,VWS V14.01,2013-03-26 18:47:00,
2013-03-26 13:53:00,37.6,22.5,30.45,NW,320,2.0,3.0,54,0.00,,BKN049,0.00,1220.00,VWS V14.01,2013-03-26 18:53:00,
2013-03-26 13:58:00,37.6,22.5,30.45,NW,314,8.0,10.0,54,0.00,,BKN049,0.00,388.00,VWS V14.01,2013-03-26 18:58:00,
2013-03-26 14:03:00,37.0,23.2,30.45,NW,309,3.0,5.0,57,0.00,,BKN040,0.00,272.00,VWS V14.01,2013-03-26 19:03:00,
2013-03-26 14:08:00,36.5,22.3,30.45,WNW,290,5.0,10.0,56,0.00,,BKN040,0.00,279.00,VWS V14.01,2013-03-26 19:08:00,
2013-03-26 14:13:00,36.0,22.7,30.45,WNW,284,5.0,8.0,58,0.00,,BKN040,0.00,316.00,VWS V14.01,2013-03-26 19:13:00,
2013-03-26 14:18:00,36.0,22.7,30.45,WNW,300,7.0,7.0,58,0.00,,BKN040,0.00,287.00,VWS V14.01,2013-03-26 19:18:00,
2013-03-26 14:24:00,36.0,22.3,30.45,WNW,290,2.0,6.0,57,0.00,,BKN040,0.00,265.00,VWS V14.01,2013-03-26 19:24:00,
2013-03-26 14:30:00,36.0,22.3,30.45,WNW,286,3.0,4.0,57,0.00,,BKN040,0.00,316.00,VWS V14.01,2013-03-26 19:30:00,
2013-03-26 14:35:00,36.3,23.0,30.45,WNW,303,6.0,6.0,58,0.00,,BKN040,0.00,294.00,VWS V14.01,2013-03-26 19:35:00,
2013-03-26 14:40:00,36.5,21.9,30.45,WNW,298,9.0,9.0,55,0.00,,BKN040,0.00,274.00,VWS V14.01,2013-03-26 19:40:00,
2013-03-26 14:46:00,36.3,21.7,30.45,West,259,5.0,5.0,55,0.00,,BKN040,0.00,320.00,VWS V14.01,2013-03-26 19:46:00,
2013-03-26 14:52:00,36.5,22.3,30.45,WNW,299,3.0,6.0,56,0.00,,BKN040,0.00,281.00,VWS V14.01,2013-03-26 19:52:00,
2013-03-26 14:57:00,36.6,21.5,30.45,WNW,294,9.0,9.0,54,0.00,,BKN040,0.00,255.00,VWS V14.01,2013-03-26 19:57:00,
2013-03-26 15:02:00,36.5,21.9,30.45,WSW,243,5.0,7.0,55,0.00,,BKN,0.00,244.00,VWS V14.01,2013-03-26 20:02:00,
2013-03-26 15:07:00,36.3,22.1,30.45,NNW,331,3.0,8.0,56,0.00,,BKN,0.00,237.00,VWS V14.01,2013-03-26 20:07:00,
2013-03-26 15:13:00,36.2,22.9,30.45,West,263,1.0,6.0,58,0.00,,BKN,0.00,246.00,VWS V14.01,2013-03-26 20:13:00,
2013-03-26 15:19:00,36.3,23.4,30.45,WNW,297,4.0,6.0,59,0.00,,BKN,0.00,213.00,VWS V14.01,2013-03-26 20:19:00,
2013-03-26 15:24:00,36.3,23.4,30.45,WNW,298,1.0,9.0,59,0.00,,BKN,0.00,278.00,VWS V14.01,2013-03-26 20:24:00,
2013-03-26 15:29:00,36.3,23.4,30.45,NW,315,2.0,8.0,59,0.00,,BKN,0.00,264.00,VWS V14.01,2013-03-26 20:29:00,
2013-03-26 15:35:00,36.5,24.0,30.45,NW,317,6.0,6.0,60,0.00,,BKN,0.00,193.00,VWS V14.01,2013-03-26 20:35:00,
2013-03-26 15:42:00,36.3,23.4,30.45,WNW,288,3.0,3.0,59,0.00,,BKN,0.00,148.00,VWS V14.01,2013-03-26 20:42:00,
2013-03-26 15:47:00,36.0,23.5,30.45,NW,313,3.0,8.0,60,0.00,,BKN,0.00,156.00,VWS V14.01,2013-03-26 20:47:00,
2013-03-26 15:53:00,36.0,23.9,30.45,WNW,299,0.0,4.0,61,0.00,,BKN,0.00,185.00,VWS V14.01,2013-03-26 20:53:00,
2013-03-26 15:59:00,36.3,24.1,30.45,West,267,2.0,9.0,61,0.00,,BKN,0.00,206.00,VWS V14.01,2013-03-26 20:59:00,
2013-03-26 16:05:00,36.3,23.8,30.45,NW,311,3.0,6.0,60,0.00,,OVC041,0.00,304.00,VWS V14.01,2013-03-26 21:05:00,
2013-03-26 16:10:00,36.5,24.0,30.45,WNW,293,4.0,5.0,60,0.00,,OVC041,0.00,295.00,VWS V14.01,2013-03-26 21:10:00,
2013-03-26 16:15:00,36.5,24.0,30.45,WNW,300,1.0,5.0,60,0.00,,OVC041,0.00,199.00,VWS V14.01,2013-03-26 21:15:00,
2013-03-26 16:21:00,36.5,23.5,30.45,WNW,294,3.0,5.0,59,0.00,,OVC041,0.00,149.00,VWS V14.01,2013-03-26 21:21:00,
2013-03-26 16:27:00,36.5,23.5,30.45,NW,325,3.0,7.0,59,0.00,,OVC041,0.00,142.00,VWS V14.01,2013-03-26 21:27:00,
2013-03-26 16:33:00,36.5,24.0,30.45,NW,326,4.0,5.0,60,0.00,,OVC041,0.00,130.00,VWS V14.01,2013-03-26 21:33:00,
2013-03-26 16:38:00,36.6,23.6,30.45,NW,311,4.0,6.0,59,0.00,,OVC041,0.00,107.00,VWS V14.01,2013-03-26 21:38:00,
2013-03-26 16:44:00,36.5,23.5,30.45,WNW,292,3.0,6.0,59,0.00,,OVC041,0.00,107.00,VWS V14.01,2013-03-26 21:44:00,
2013-03-26 16:49:00,36.3,23.4,30.44,WNW,284,5.0,5.0,59,0.00,,OVC041,0.00,120.00,VWS V14.01,2013-03-26 21:49:00,
2013-03-26 16:55:00,36.3,23.4,30.45,West,271,3.0,5.0,59,0.00,,OVC041,0.00,128.00,VWS V14.01,2013-03-26 21:55:00,
2013-03-26 17:01:00,36.5,24.0,30.45,NW,304,4.0,4.0,60,0.00,,OVC040,0.00,102.00,VWS V14.01,2013-03-26 22:01:00,
2013-03-26 17:07:00,36.5,24.0,30.45,WNW,296,7.0,7.0,60,0.00,,OVC040,0.00,104.00,VWS V14.01,2013-03-26 22:07:00,
2013-03-26 17:13:00,36.3,23.8,30.45,WNW,290,1.0,4.0,60,0.00,,OVC040,0.00,118.00,VWS V14.01,2013-03-26 22:13:00,
2013-03-26 17:18:00,36.3,24.1,30.45,WNW,289,3.0,4.0,61,0.00,,OVC040,0.00,111.00,VWS V14.01,2013-03-26 22:18:00,
2013-03-26 17:23:00,36.3,24.1,30.45,West,281,6.0,6.0,61,0.00,,OVC040,0.00,104.00,VWS V14.01,2013-03-26 22:23:00,
2013-03-26 17:29:00,36.3,24.1,30.45,WNW,286,1.0,6.0,61,0.00,,OVC040,0.00,81.00,VWS V14.01,2013-03-26 22:29:00,
2013-03-26 17:35:00,36.3,24.1,30.45,WNW,292,1.0,4.0,61,0.00,,OVC040,0.00,83.00,VWS V14.01,2013-03-26 22:35:00,
2013-03-26 17:41:00,36.3,24.1,30.45,WSW,249,2.0,4.0,61,0.00,,OVC040,0.00,69.00,VWS V14.01,2013-03-26 22:41:00,
2013-03-26 17:47:00,36.2,24.1,30.45,West,263,2.0,7.0,61,0.00,,OVC040,0.00,53.00,VWS V14.01,2013-03-26 22:47:00,
2013-03-26 17:52:00,36.0,25.0,30.46,SSW,210,8.0,10.0,64,0.00,,OVC040,0.00,35.00,VWS V14.01,2013-03-26 22:52:00,
2013-03-26 17:58:00,35.5,26.0,30.46,SW,231,3.0,8.0,68,0.00,,OVC040,0.00,33.00,VWS V14.01,2013-03-26 22:58:00,
2013-03-26 18:03:00,35.0,25.9,30.47,West,268,6.0,9.0,69,0.00,,OVC044,0.00,37.00,VWS V14.01,2013-03-26 23:03:00,
2013-03-26 18:08:00,34.7,25.9,30.47,West,266,2.0,5.0,70,0.00,,OVC044,0.00,35.00,VWS V14.01,2013-03-26 23:08:00,
2013-03-26 18:13:00,34.7,26.3,30.47,West,263,2.0,9.0,71,0.00,,OVC044,0.00,30.00,VWS V14.01,2013-03-26 23:13:00,
2013-03-26 18:19:00,34.6,25.8,30.47,WSW,237,5.0,8.0,70,0.00,,OVC044,0.00,21.00,VWS V14.01,2013-03-26 23:19:00,
2013-03-26 18:25:00,34.4,26.0,30.47,West,273,6.0,6.0,71,0.00,,OVC044,0.00,18.00,VWS V14.01,2013-03-26 23:25:00,
2013-03-26 18:30:00,34.4,26.0,30.47,WSW,242,5.0,5.0,71,0.00,,OVC044,0.00,14.00,VWS V14.01,2013-03-26 23:30:00,
2013-03-26 18:35:00,34.4,26.0,30.47,West,265,5.0,6.0,71,0.00,,OVC044,0.00,12.00,VWS V14.01,2013-03-26 23:35:00,
2013-03-26 18:40:00,34.4,26.0,30.47,West,271,2.0,5.0,71,0.00,,OVC044,0.00,11.00,VWS V14.01,2013-03-26 23:40:00,
2013-03-26 18:45:00,34.4,26.0,30.47,West,261,6.0,6.0,71,0.00,,OVC044,0.00,9.00,VWS V14.01,2013-03-26 23:45:00,
2013-03-26 18:52:00,34.3,25.9,30.48,West,263,2.0,9.0,71,0.00,,OVC044,0.00,7.00,VWS V14.01,2013-03-26 23:52:00,
2013-03-26 18:57:00,34.3,25.5,30.47,WSW,257,3.0,6.0,70,0.00,,OVC044,0.00,5.00,VWS V14.01,2013-03-26 23:57:00,
2013-03-26 19:03:00,34.3,25.9,30.47,WSW,256,4.0,6.0,71,0.00,,OVC047,0.00,0.00,VWS V14.01,2013-03-27 00:03:00,
2013-03-26 19:09:00,34.3,25.9,30.47,West,268,2.0,8.0,71,0.00,,OVC047,0.00,0.00,VWS V14.01,2013-03-27 00:09:00,
2013-03-26 19:15:00,34.3,25.9,30.47,West,263,5.0,7.0,71,0.00,,OVC047,0.00,0.00,VWS V14.01,2013-03-27 00:15:00,
2013-03-26 19:21:00,34.3,25.5,30.47,West,260,5.0,6.0,70,0.00,,OVC047,0.00,0.00,VWS V14.01,2013-03-27 00:21:00,
2013-03-26 19:26:00,34.3,25.9,30.47,West,261,1.0,5.0,71,0.00,,OVC047,0.00,0.00,VWS V14.01,2013-03-27 00:26:00,
2013-03-26 19:32:00,34.1,25.4,30.47,WSW,250,1.0,6.0,70,0.00,,OVC047,0.00,0.00,VWS V14.01,2013-03-27 00:32:00,
2013-03-26 19:37:00,34.1,25.4,30.47,WSW,256,4.0,5.0,70,0.00,,OVC047,0.00,0.00,VWS V14.01,2013-03-27 00:37:00,
2013-03-26 19:42:00,34.1,25.4,30.47,WSW,258,1.0,4.0,70,0.00,,OVC047,0.00,0.00,VWS V14.01,2013-03-27 00:42:00,
2013-03-26 19:47:00,34.1,25.4,30.47,WSW,249,3.0,3.0,70,0.00,,OVC047,0.00,0.00,VWS V14.01,2013-03-27 00:47:00,
2013-03-26 19:53:00,34.1,25.4,30.47,West,273,8.0,8.0,70,0.00,,OVC047,0.00,0.00,VWS V14.01,2013-03-27 00:53:00,
2013-03-26 19:59:00,34.1,25.4,30.48,West,261,2.0,5.0,70,0.00,,OVC047,0.00,0.00,VWS V14.01,2013-03-27 00:59:00,
2013-03-26 20:05:00,34.1,25.4,30.48,WSW,246,3.0,7.0,70,0.00,,OVC041,0.00,0.00,VWS V14.01,2013-03-27 01:05:00,
2013-03-26 20:10:00,34.1,25.4,30.48,WSW,253,1.0,6.0,70,0.00,,OVC041,0.00,0.00,VWS V14.01,2013-03-27 01:10:00,
2013-03-26 20:16:00,34.1,25.7,30.48,WSW,250,4.0,5.0,71,0.00,,OVC041,0.00,0.00,VWS V14.01,2013-03-27 01:16:00,
2013-03-26 20:21:00,34.0,25.6,30.48,WSW,248,4.0,4.0,71,0.00,,OVC041,0.00,0.00,VWS V14.01,2013-03-27 01:21:00,
2013-03-26 20:27:00,34.0,25.6,30.48,WSW,250,1.0,5.0,71,0.00,,OVC041,0.00,0.00,VWS V14.01,2013-03-27 01:27:00,
2013-03-26 20:32:00,34.0,25.6,30.48,WSW,250,3.0,6.0,71,0.00,,OVC041,0.00,0.00,VWS V14.01,2013-03-27 01:32:00,
2013-03-26 20:38:00,34.0,25.6,30.48,WSW,250,1.0,4.0,71,0.00,,OVC041,0.00,0.00,VWS V14.01,2013-03-27 01:38:00,
2013-03-26 20:43:00,34.0,25.6,30.49,WSW,250,2.0,3.0,71,0.00,,OVC041,0.00,0.00,VWS V14.01,2013-03-27 01:43:00,
2013-03-26 20:48:00,34.0,25.3,30.49,WSW,251,3.0,6.0,70,0.00,,OVC041,0.00,0.00,VWS V14.01,2013-03-27 01:48:00,
2013-03-26 20:54:00,34.1,25.4,30.49,WSW,251,2.0,3.0,70,0.00,,OVC041,0.00,0.00,VWS V14.01,2013-03-27 01:54:00,
2013-03-26 21:00:00,34.1,25.4,30.49,WSW,251,0.0,4.0,70,0.00,,OVC044,0.00,0.00,VWS V14.01,2013-03-27 02:00:00,
2013-03-26 21:05:00,34.1,25.4,30.49,WSW,250,3.0,5.0,70,0.00,,OVC044,0.00,0.00,VWS V14.01,2013-03-27 02:05:00,
2013-03-26 21:11:00,34.1,25.7,30.49,WSW,250,5.0,5.0,71,0.00,,OVC044,0.00,0.00,VWS V14.01,2013-03-27 02:11:00,
2013-03-26 21:16:00,34.0,25.9,30.49,WSW,250,2.0,5.0,72,0.00,,OVC044,0.00,0.00,VWS V14.01,2013-03-27 02:16:00,
2013-03-26 21:21:00,33.8,25.7,30.49,WSW,249,3.0,4.0,72,0.00,,OVC044,0.00,0.00,VWS V14.01,2013-03-27 02:21:00,
2013-03-26 21:27:00,33.8,26.1,30.49,WSW,249,1.0,5.0,73,0.00,,OVC044,0.00,0.00,VWS V14.01,2013-03-27 02:27:00,
2013-03-26 21:32:00,33.7,26.0,30.49,WSW,249,1.0,4.0,73,0.00,,OVC044,0.00,0.00,VWS V14.01,2013-03-27 02:32:00,
2013-03-26 21:37:00,33.7,26.3,30.49,WSW,249,3.0,4.0,74,0.00,,OVC044,0.00,0.00,VWS V14.01,2013-03-27 02:37:00,
2013-03-26 21:42:00,33.5,26.1,30.49,WSW,249,0.0,3.0,74,0.00,,OVC044,0.00,0.00,VWS V14.01,2013-03-27 02:42:00,
2013-03-26 21:48:00,33.5,26.1,30.49,WSW,245,1.0,2.0,74,0.00,,OVC044,0.00,0.00,VWS V14.01,2013-03-27 02:48:00,
2013-03-26 21:53:00,33.5,26.1,30.49,WSW,245,0.0,2.0,74,0.00,,OVC044,0.00,0.00,VWS V14.01,2013-03-27 02:53:00,
2013-03-26 21:58:00,33.5,26.1,30.49,WSW,245,2.0,4.0,74,0.00,,OVC044,0.00,0.00,VWS V14.01,2013-03-27 02:58:00,
2013-03-26 22:03:00,33.5,26.1,30.49,WSW,245,1.0,5.0,74,0.00,,OVC044,0.00,0.00,VWS V14.01,2013-03-27 03:03:00,
2013-03-26 22:09:00,33.5,26.1,30.49,WSW,245,0.0,1.0,74,0.00,,OVC044,0.00,0.00,VWS V14.01,2013-03-27 03:09:00,
2013-03-26 22:14:00,33.5,26.1,30.49,WSW,245,2.0,4.0,74,0.00,,OVC044,0.00,0.00,VWS V14.01,2013-03-27 03:14:00,
2013-03-26 22:19:00,33.5,26.1,30.49,WSW,245,2.0,6.0,74,0.00,,OVC044,0.00,0.00,VWS V14.01,2013-03-27 03:19:00,
2013-03-26 22:25:00,33.4,26.3,30.49,WSW,245,2.0,2.0,75,0.00,,OVC044,0.00,0.00,VWS V14.01,2013-03-27 03:25:00,
2013-03-26 22:31:00,33.4,26.3,30.49,WSW,245,0.0,3.0,75,0.00,,OVC044,0.00,0.00,VWS V14.01,2013-03-27 03:31:00,
2013-03-26 22:37:00,33.4,26.3,30.49,WSW,245,0.0,2.0,75,0.00,,OVC044,0.00,0.00,VWS V14.01,2013-03-27 03:37:00,
2013-03-26 22:42:00,33.4,26.3,30.50,WSW,245,0.0,2.0,75,0.00,,OVC044,0.00,0.00,VWS V14.01,2013-03-27 03:42:00,
2013-03-26 22:48:00,33.2,26.5,30.50,WSW,245,1.0,1.0,76,0.00,,OVC044,0.00,0.00,VWS V14.01,2013-03-27 03:48:00,
2013-03-26 22:54:00,33.2,26.5,30.50,WSW,245,1.0,2.0,76,0.00,,OVC044,0.00,0.00,VWS V14.01,2013-03-27 03:54:00,
2013-03-26 23:00:00,33.2,26.5,30.50,WSW,245,0.0,1.0,76,0.00,,OVC043,0.00,0.00,VWS V14.01,2013-03-27 04:00:00,
2013-03-26 23:01:00,33.2,26.5,30.50,WSW,245,2.0,2.0,76,0.00,,OVC043,0.00,0.00,VWS V14.01,2013-03-27 04:01:00,
2013-03-26 23:03:00,33.2,26.5,30.50,WSW,245,4.0,4.0,76,0.00,,OVC043,0.00,0.00,VWS V14.01,2013-03-27 04:03:00,
2013-03-26 23:08:00,33.2,26.5,30.50,WSW,245,0.0,2.0,76,0.00,,OVC043,0.00,0.00,VWS V14.01,2013-03-27 04:08:00,
2013-03-26 23:09:00,33.1,26.4,30.50,WSW,245,1.0,2.0,76,0.00,,OVC043,0.00,0.00,VWS V14.01,2013-03-27 04:09:00,
2013-03-26 23:14:00,33.1,26.4,30.50,WSW,245,0.0,2.0,76,0.00,,OVC043,0.00,0.00,VWS V14.01,2013-03-27 04:14:00,
2013-03-26 23:19:00,32.9,26.2,30.50,WSW,245,1.0,3.0,76,0.00,,OVC043,0.00,0.00,VWS V14.01,2013-03-27 04:19:00,
2013-03-26 23:24:00,32.8,26.1,30.50,WSW,245,0.0,1.0,76,0.00,,OVC043,0.00,0.00,VWS V14.01,2013-03-27 04:24:00,
2013-03-26 23:30:00,32.5,25.8,30.50,WSW,245,0.0,3.0,76,0.00,,OVC043,0.00,0.00,VWS V14.01,2013-03-27 04:30:00,
2013-03-26 23:36:00,32.4,26.0,30.50,WSW,245,0.0,1.0,77,0.00,,OVC043,0.00,0.00,VWS V14.01,2013-03-27 04:36:00,
2013-03-26 23:43:00,32.2,25.8,30.50,WSW,245,1.0,2.0,77,0.00,,OVC043,0.00,0.00,VWS V14.01,2013-03-27 04:43:00,
2013-03-26 23:48:00,32.1,25.7,30.50,WSW,245,0.0,0.0,77,0.00,,OVC043,0.00,0.00,VWS V14.01,2013-03-27 04:48:00,
2013-03-26 23:54:00,31.8,25.4,30.50,WSW,245,0.0,0.0,77,0.00,,OVC043,0.00,0.00,VWS V14.01,2013-03-27 04:54:00,
2013-03-26 23:59:00,31.5,25.1,30.50,WSW,245,0.0,0.0,77,0.00,,OVC043,0.00,0.00,VWS V14.01,2013-03-27 04:59:00,